DW9636 Weather Reports


Display with metric or nautical units.
time (UTC)temp
F
wind
direction
speed
MPH
gust
MPH
rain 1hr
in
rain 24hr
in
rain mn
in
humidity
%
barometer
mb
20260903113044 40 180 0.0 0.0 0.00 0.00 0.00 94 1009.0
20260903111542 41 180 0.0 0.0 0.00 0.00 0.00 94 1008.7
20260903110039 41 180 0.0 0.0 0.00 0.00 0.00 94 1008.6
20260903104539 42 180 0.0 0.0 0.00 0.00 0.00 95 1008.8
20260903103036 42 180 0.0 0.0 0.00 0.00 0.00 95 1008.9
20260903101535 42 180 0.0 0.0 0.00 0.00 0.00 95 1008.9
20260903100035 42 180 0.0 0.0 0.00 0.00 0.00 95 1008.9
20260903094540 42 180 0.0 0.0 0.00 0.00 0.00 95 1009.0
20260903093048 42 180 0.0 0.0 0.00 0.00 0.00 94 1008.9
20260903091532 42 180 0.0 0.0 0.00 0.00 0.00 94 1008.9
20260903090031 43 180 0.0 0.0 0.00 0.00 0.00 94 1009.1
20260903084532 43 180 0.0 0.0 0.00 0.00 0.00 94 1009.0
20260903083026 44 180 0.0 0.0 0.00 0.00 0.00 94 1009.1
20260903081524 44 180 0.0 0.0 0.00 0.00 0.00 94 1009.2
20260903080022 45 180 0.0 0.0 0.00 0.00 0.00 95 1008.9
20260903074521 45 180 0.0 0.0 0.00 0.00 0.00 95 1008.9
20260903073020 45 180 0.0 0.0 0.00 0.00 0.00 94 1008.8
20260903071520 44 180 0.0 0.0 0.00 0.00 0.00 94 1008.7
20260903070020 44 180 0.0 0.0 0.00 0.00 0.00 94 1008.6
20260903064514 45 180 0.0 0.0 0.00 0.00 0.31 94 1008.4
20260903063013 45 180 0.0 0.0 0.00 0.00 0.31 94 1008.2
20260903061511 45 180 0.0 0.0 0.00 0.00 0.30 94 1008.1
20260903060013 45 180 0.0 0.0 0.00 0.00 0.28 94 1008.3
20260903054517 46 180 0.0 0.0 0.00 0.00 0.28 94 1008.2
20260903053007 46 180 0.0 0.0 0.00 0.00 0.23 94 1008.2
20260903051505 46 180 0.0 0.0 0.00 0.00 0.22 94 1007.7
20260903050005 46 180 0.0 0.0 0.00 0.00 0.22 94 1007.7
20260903044503 46 180 0.0 0.0 0.00 0.00 0.22 94 1007.7
20260903043003 46 180 0.0 0.0 0.00 0.00 0.21 94 1007.6
20260903041502 47 180 0.0 0.0 0.00 0.00 0.21 94 1007.6
20260903040100 47 180 0.0 0.0 0.00 0.00 0.20 94 1007.6
20260903034601 47 180 0.0 0.0 0.00 0.00 0.20 94 1007.4
20260903033059 47 180 0.0 0.0 0.00 0.00 0.20 93 1007.5
20260903031557 47 180 0.0 0.0 0.00 0.00 0.20 93 1007.2
20260903030058 47 162 0.0 0.0 0.00 0.00 0.19 93 1007.3
20260903024557 47 162 0.0 0.0 0.00 0.00 0.18 93 1007.4
20260903023056 47 162 0.0 0.0 0.00 0.00 0.18 92 1007.3
20260903021555 48 162 0.0 0.0 0.00 0.00 0.18 92 1007.1
20260903020057 49 162 0.0 0.0 0.00 0.00 0.18 92 1006.9
20260903014608 49 162 0.0 0.0 0.00 0.00 0.17 91 1007.7
20260903013053 50 162 0.0 0.0 0.00 0.00 0.16 92 1007.4
20260903011553 50 162 0.0 0.0 0.00 0.00 0.16 92 1007.1
20260903010052 50 161 0.0 0.0 0.00 0.00 0.16 92 1007.1
20260903004552 51 197 0.0 0.0 0.00 0.00 0.15 92 1007.0
20260903003052 51 203 0.0 0.0 0.00 0.00 0.14 92 1006.9
20260903001555 51 163 0.0 0.0 0.00 0.00 0.13 91 1006.6
20260903000051 51 237 0.0 0.0 0.00 0.00 0.12 92 1006.3
20260902234550 51 237 0.0 0.0 0.00 0.00 0.12 92 1006.3
20260902233049 51 242 0.0 0.0 0.00 0.00 0.12 92 1006.1
20260902231549 51 156 0.0 0.0 0.00 0.00 0.12 92 1006.3
20260902230048 51 156 0.0 0.0 0.00 0.00 0.12 92 1006.3
20260902224550 51 202 0.0 0.0 0.00 0.00 0.12 92 1006.3
20260902223047 51 175 0.0 0.0 0.00 0.00 0.11 92 1006.1
20260902221547 51 173 0.0 0.0 0.00 0.00 0.11 92 1006.0
20260902220047 51 202 0.0 0.0 0.00 0.00 0.11 92 1005.9
20260902214548 51 202 0.0 0.0 0.00 0.00 0.11 93 1005.8
20260902213045 50 202 0.0 0.0 0.00 0.00 0.11 92 1006.2
20260902211545 50 202 0.0 0.0 0.00 0.00 0.11 92 1006.2
20260902210055 50 202 0.0 0.0 0.00 0.00 0.10 92 1005.9
20260902204544 49 202 0.0 0.0 0.00 0.00 0.09 92 1005.9
20260902203042 49 110 0.0 0.0 0.00 0.00 0.08 92 1006.0
20260902201541 49 100 0.0 0.0 0.00 0.00 0.08 92 1006.0
20260902200041 48 221 0.0 0.0 0.00 0.00 0.08 91 1006.0
20260902194541 48 254 0.0 0.0 0.00 0.00 0.07 91 1006.1
20260902193040 48 254 0.0 0.0 0.00 0.00 0.06 90 1006.0
20260902191539 49 254 0.0 0.0 0.00 0.00 0.05 88 1006.1
20260902190038 49 198 0.0 0.0 0.00 0.00 0.04 88 1006.0
20260902184537 50 208 0.0 0.0 0.00 0.00 0.02 85 1005.9
20260902183037 51 210 1.0 0.0 0.00 0.00 0.01 79 1005.8
20260902181536 53 209 1.0 0.0 0.00 0.00 0.00 73 1005.4
20260902180035 55 196 2.0 0.0 0.00 0.00 0.00 66 1005.1
20260902174535 55 194 0.0 0.0 0.00 0.00 0.00 64 1004.9
20260902173037 55 156 1.0 0.0 0.00 0.00 0.00 64 1004.9
20260902171531 54 188 0.0 0.0 0.00 0.00 0.00 67 1004.9
20260902170030 54 163 1.0 0.0 0.00 0.00 0.00 68 1004.9
20260902164533 53 164 0.0 0.0 0.00 0.00 0.00 69 1005.0
20260902163029 53 200 0.0 0.0 0.00 0.00 0.00 69 1004.9
20260902161527 54 172 0.0 0.0 0.00 0.00 0.00 70 1005.0
20260902160024 53 213 0.0 0.0 0.00 0.00 0.00 73 1005.0
20260902154521 53 231 0.0 0.0 0.00 0.00 0.00 75 1005.1
20260902153021 52 272 0.0 0.0 0.00 0.00 0.00 78 1005.5
20260902151514 51 188 0.0 0.0 0.00 0.00 0.00 81 1005.8
20260902150010 49 265 0.0 0.0 0.00 0.00 0.00 85 1006.0
20260902144514 49 286 0.0 0.0 0.00 0.00 0.00 86 1006.1
20260902143007 48 286 0.0 0.0 0.00 0.00 0.00 86 1006.1
20260902141505 48 287 0.0 0.0 0.00 0.00 0.00 86 1006.3
20260902140006 48 287 0.0 0.0 0.00 0.00 0.00 86 1006.2
20260902134508 48 287 0.0 0.0 0.00 0.00 0.00 87 1006.2
20260902133004 48 287 0.0 0.0 0.00 0.00 0.00 86 1006.3
20260902131502 48 287 0.0 0.0 0.00 0.00 0.00 86 1006.4
20260902130001 48 287 0.0 0.0 0.00 0.00 0.00 86 1006.3
20260902124608 49 287 0.0 0.0 0.00 0.00 0.00 85 1006.4
20260902123101 49 287 0.0 0.0 0.00 0.00 0.00 83 1006.6
20260902121603 49 287 0.0 0.0 0.00 0.00 0.00 83 1006.7
20260902120056 49 287 0.0 0.0 0.00 0.00 0.00 84 1006.8
20260902114558 49 287 0.0 0.0 0.00 0.00 0.00 84 1006.9